Wind_Speed
10 7 6 7 8 10 11 12 13 14 16 19 20 21 22 24 25 24 22 20 18 16 14 13 12 11 10 10 10 10 10 10 10 10 11 12 13 14 16 17 18 19
14 11 10 11 12 13 14 15 16 16 17 19 20 21 22 23 25 25 24 22 20 17 15 14 12 11 10 10 10 10 11 11 11 12 12 14 15 16 18 19 19 19
17 15 14 14 15 16 16 17 18 18 18 19 21 22 22 23 25 26 25 23 20 17 15 13 12 11 11 11 11 11 12 12 13 13 14 15 16 18 19 19 19 19
20 19 18 18 18 18 18 19 19 19 19 20 21 22 22 23 25 26 26 23 20 17 14 13 12 11 11 11 12 13 13 14 15 15 16 16 17 18 19 19 19 19
22 21 21 21 21 20 20 20 20 19 19 20 21 22 22 23 26 26 25 23 19 17 15 13 12 11 11 12 12 13 14 15 16 16 16 16 17 19 19 19 19 19
24 23 23 23 22 22 22 21 20 19 19 20 21 21 22 23 25 26 24 21 19 17 15 13 11 11 11 12 12 13 14 15 15 15 15 15 17 18 19 19 18 18
26 25 24 23 23 23 22 21 20 19 19 20 20 21 22 24 25 25 23 20 18 16 14 12 11 11 11 11 12 13 14 15 15 15 15 16 16 17 18 19 19 19
28 26 25 25 25 24 23 21 19 19 19 20 20 21 22 23 25 23 21 19 17 15 13 12 11 11 11 12 13 14 14 15 15 15 15 15 16 17 18 19 19 19
30 28 27 27 27 25 22 19 18 18 19 20 20 20 21 23 24 22 20 18 16 15 13 12 12 12 13 13 14 15 15 15 15 14 14 15 17 17 18 18 18 18
33 33 32 31 29 26 21 18 17 18 19 19 19 19 20 23 22 20 19 18 17 15 13 13 13 13 13 14 15 15 15 16 16 15 15 16 17 17 18 18 18 19
38 40 38 34 30 26 21 16 16 18 19 19 19 19 20 22 21 19 19 18 18 17 15 14 14 13 13 15 16 16 17 18 18 17 16 17 17 18 19 20 20 21
44 45 40 32 26 23 19 15 16 18 19 18 18 19 21 21 20 18 18 18 18 17 16 16 15 14 15 17 18 19 20 20 19 17 16 17 18 19 20 21 22 24
49 45 37 29 23 21 16 14 16 18 18 18 18 19 20 20 19 18 17 18 18 18 17 16 15 15 17 18 19 20 20 19 18 17 17 18 19 20 21 22 23 24
50 40 33 27 22 20 15 13 16 17 17 18 18 19 19 19 18 17 17 17 17 17 16 15 14 16 18 18 19 19 19 18 17 17 17 18 20 21 22 23 24 26
47 39 36 31 21 16 15 14 17 17 17 17 18 18 18 18 17 17 16 17 17 16 15 14 14 17 18 19 19 19 19 18 18 19 19 20 21 22 23 24 26 27
46 43 43 32 18 14 15 17 18 17 16 16 17 17 17 16 17 16 16 16 15 15 14 14 15 19 20 20 19 19 20 20 21 21 21 22 23 24 25 26 27 29
48 47 42 29 17 15 16 18 19 17 16 15 15 15 15 15 17 17 16 16 15 15 15 15 18 21 22 21 21 21 21 22 22 22 22 22 23 25 27 28 29 30
52 44 35 25 17 16 17 19 19 17 15 14 13 14 14 16 17 17 16 15 15 16 17 18 21 23 23 23 24 24 23 23 23 22 22 23 25 27 28 29 30 31
50 35 27 21 16 16 19 20 19 16 14 13 12 13 14 16 16 15 14 14 15 16 18 20 21 22 24 25 26 25 25 26 26 25 25 26 27 29 30 30 31 32
40 28 20 16 16 18 21 21 18 15 13 12 11 12 14 14 14 14 14 14 16 17 19 20 20 21 24 26 26 26 27 28 29 28 28 28 30 32 32 31 32 33
31 25 18 16 19 21 21 20 17 14 13 11 11 11 12 12 13 14 14 16 18 20 21 22 22 22 25 26 26 26 28 30 30 29 29 30 32 34 34 33 33 34
26 23 18 18 22 22 22 21 18 15 13 11 10 11 12 13 15 16 17 19 20 23 24 25 24 23 25 27 26 27 30 32 30 29 30 32 34 36 35 34 34 35
25 23 22 22 23 24 23 21 19 15 11 9 10 12 13 16 17 19 20 22 23 25 25 26 26 25 26 28 28 29 33 33 31 31 32 34 35 36 35 35 35 35
26 29 28 23 24 26 24 20 17 12 9 8 10 12 15 18 20 21 23 24 25 26 27 28 27 25 27 29 30 32 34 33 32 33 34 36 37 36 35 35 35 35
29 34 30 23 24 26 22 19 14 9 7 9 10 13 16 19 21 23 24 25 26 28 29 29 28 26 28 31 32 33 34 33 33 35 37 37 37 36 35 35 35 34
30 32 29 25 26 25 21 17 13 8 8 10 12 15 18 20 22 24 25 26 28 30 31 31 30 30 31 33 34 34 33 33 35 37 38 37 36 36 36 34 33 33
Wind_Direction
245 246 249 264 280 291 303 311 319 330 340 345 346 346 349 353 355 353 349 347 344 340 335 332 331 328 325 323 320 317 316 316 316 314 311 306 304 301 300 299 297 297
255 256 254 258 266 277 290 298 305 315 328 338 342 341 343 348 350 349 345 343 340 338 335 332 330 328 326 322 318 316 313 311 308 307 304 300 299 300 302 303 300 297
259 259 257 258 262 272 284 293 299 306 318 331 337 338 340 344 346 345 341 339 337 336 334 329 328 327 325 321 319 317 314 311 306 304 302 299 299 302 305 306 303 300
259 260 258 258 262 270 282 290 295 301 312 325 332 335 336 340 342 341 337 335 336 335 332 329 328 329 329 327 324 321 318 314 309 307 306 305 304 305 304 303 300 298
256 259 260 261 263 270 281 288 292 298 307 318 327 331 332 336 339 337 333 333 334 333 331 330 329 329 329 327 324 319 315 313 310 308 308 305 303 301 301 300 299 295
252 256 260 262 264 271 279 285 289 296 303 312 322 327 328 332 335 333 330 330 332 332 331 330 329 328 328 326 323 318 315 312 309 308 306 302 300 300 301 302 301 297
250 252 257 261 263 269 276 281 286 294 301 309 317 323 324 328 330 329 327 328 330 332 332 331 328 328 329 328 325 321 318 316 312 309 308 306 304 303 302 302 302 299
251 248 252 256 260 266 271 275 282 293 300 305 313 318 319 322 326 324 323 326 330 333 334 332 330 331 334 333 328 324 322 319 316 313 311 308 306 303 301 300 300 300
252 247 247 249 253 257 261 267 279 291 297 301 309 313 313 317 321 320 320 325 329 331 334 332 331 335 337 334 330 327 325 322 319 316 313 308 306 305 304 304 304 304
249 243 237 239 245 248 253 266 280 286 291 298 304 306 307 313 316 316 319 325 327 329 331 329 329 333 334 333 333 331 329 325 321 317 314 311 311 312 311 310 310 311
246 239 234 236 245 253 261 271 276 279 286 293 297 299 303 310 313 314 320 325 327 328 327 325 325 326 328 332 334 333 331 327 320 316 315 314 315 315 314 314 315 316
243 242 243 246 255 266 272 270 268 273 282 287 291 295 300 307 311 314 321 324 325 325 324 323 322 323 328 332 333 332 331 327 320 317 317 318 318 318 317 318 319 319
243 246 254 260 270 275 268 259 263 269 276 282 287 291 298 305 308 313 320 323 321 320 320 322 323 327 333 333 332 333 332 328 322 320 320 319 319 319 319 319 320 320
247 252 258 260 269 272 260 253 260 264 270 278 283 289 296 302 304 311 318 318 315 315 318 325 328 331 334 334 334 335 335 331 324 321 321 319 317 316 315 316 317 318
255 259 255 250 253 256 250 251 255 259 268 275 279 288 295 299 303 310 314 313 310 311 317 325 328 329 332 334 335 335 334 330 322 318 317 317 315 313 312 313 315 316
267 261 252 250 251 242 241 250 253 257 266 271 279 290 294 298 304 309 312 309 308 311 315 319 322 326 329 332 332 330 328 326 322 318 316 316 316 315 314 314 315 316
270 261 255 255 250 231 233 248 253 257 263 269 282 291 294 300 306 309 310 308 309 313 314 314 317 322 325 328 330 328 324 323 323 321 318 317 317 317 316 315 315 316
261 261 263 264 252 231 231 244 251 256 262 272 284 289 294 303 308 310 312 310 312 315 313 311 313 315 318 323 327 326 321 321 324 323 319 319 320 319 316 314 313 314
262 271 277 268 252 234 231 240 248 253 262 271 279 287 298 306 309 313 314 311 314 315 312 312 314 313 315 319 322 323 322 324 327 326 322 321 321 319 316 312 310 310
274 282 279 257 238 229 230 239 245 249 257 266 274 288 299 304 305 309 310 312 316 316 313 315 318 318 319 319 320 323 327 326 326 325 321 319 318 317 314 310 306 306
281 273 265 251 239 230 229 235 239 242 251 259 273 286 292 297 302 308 313 317 319 319 318 318 318 318 319 319 317 320 325 325 323 320 317 315 314 313 310 307 304 303
283 269 255 245 237 227 225 231 234 237 243 252 270 283 291 302 311 317 320 322 324 323 321 319 317 315 316 316 314 315 320 321 319 317 313 311 310 309 307 305 302 302
279 267 245 231 224 218 220 228 231 233 241 254 274 289 302 312 318 322 323 324 325 323 319 316 313 310 311 315 314 313 316 318 317 314 310 307 306 306 304 303 301 301
274 262 245 225 217 215 216 223 230 237 249 264 283 297 308 315 320 322 322 322 323 321 315 311 307 303 307 313 313 311 313 315 313 309 306 304 304 303 302 302 300 300
268 260 248 229 220 217 212 217 232 247 261 272 291 303 309 316 320 319 319 319 319 315 308 300 295 296 305 310 309 309 311 311 308 304 302 302 302 301 301 301 300 299
259 255 248 236 225 215 209 218 234 245 256 272 295 307 310 314 314 314 315 313 312 312 304 294 290 296 304 307 307 308 308 306 303 301 300 301 301 301 301 301 301 300
Height
3188 3188 3187 3188 3188 3188 3188 3188 3188 3188 3187 3186 3185 3184 3182 3180 3179 3177 3176 3174 3173 3171 3170 3169 3168 3167 3167 3166 3165 3164 3163 3162 3161 3161 3160 3160 3159 3159 3158 3158 3157 3156
3186 3185 3185 3186 3186 3186 3186 3187 3186 3186 3186 3185 3183 3182 3181 3179 3177 3176 3174 3173 3171 3170 3169 3168 3167 3166 3165 3165 3164 3163 3162 3161 3161 3160 3159 3158 3158 3157 3157 3156 3155 3154
3183 3183 3183 3183 3184 3184 3184 3184 3184 3184 3183 3182 3181 3180 3178 3177 3176 3174 3173 3171 3170 3168 3167 3167 3166 3165 3164 3164 3163 3162 3161 3160 3159 3159 3158 3157 3156 3156 3155 3154 3153 3152
3180 3180 3180 3181 3181 3182 3182 3182 3181 3181 3181 3180 3179 3177 3176 3175 3174 3173 3171 3170 3168 3167 3166 3165 3164 3163 3162 3162 3161 3161 3160 3159 3158 3157 3156 3155 3155 3154 3153 3152 3151 3150
3177 3178 3178 3178 3179 3180 3180 3179 3179 3179 3179 3178 3177 3176 3174 3173 3172 3171 3170 3168 3166 3165 3164 3163 3162 3161 3161 3160 3160 3159 3158 3157 3156 3155 3155 3154 3153 3151 3150 3149 3148 3147
3174 3175 3175 3176 3177 3178 3178 3178 3177 3177 3177 3176 3175 3174 3173 3172 3171 3169 3168 3167 3165 3164 3163 3162 3161 3160 3160 3159 3158 3157 3156 3155 3154 3153 3153 3152 3150 3149 3148 3147 3146 3145
3171 3172 3173 3174 3175 3176 3176 3176 3176 3176 3175 3175 3174 3172 3171 3171 3169 3168 3166 3165 3164 3163 3161 3160 3159 3159 3158 3157 3156 3155 3154 3153 3152 3151 3150 3149 3148 3147 3146 3144 3143 3142
3168 3169 3171 3172 3173 3174 3174 3174 3174 3174 3173 3173 3172 3170 3169 3169 3168 3166 3165 3163 3162 3161 3160 3159 3158 3157 3156 3155 3154 3154 3152 3151 3150 3149 3148 3147 3146 3145 3144 3142 3141 3140
3165 3166 3169 3170 3171 3172 3172 3172 3172 3172 3171 3170 3169 3168 3168 3167 3166 3164 3163 3162 3160 3159 3158 3157 3155 3154 3153 3153 3152 3151 3150 3149 3147 3146 3145 3145 3144 3143 3142 3140 3139 3137
3161 3162 3164 3166 3168 3169 3170 3171 3170 3169 3169 3168 3167 3166 3166 3165 3164 3162 3161 3159 3158 3156 3156 3154 3153 3152 3151 3151 3150 3149 3148 3146 3145 3144 3143 3143 3142 3140 3139 3137 3136 3135
3155 3155 3157 3162 3165 3166 3167 3168 3167 3166 3166 3165 3164 3163 3163 3163 3162 3160 3158 3156 3155 3154 3153 3152 3151 3150 3150 3149 3148 3147 3146 3145 3143 3142 3142 3141 3139 3138 3136 3135 3133 3132
3148 3149 3154 3160 3163 3163 3164 3164 3163 3163 3163 3162 3161 3161 3160 3160 3159 3157 3155 3154 3153 3152 3151 3150 3149 3149 3148 3147 3146 3145 3144 3143 3142 3141 3140 3139 3137 3136 3134 3132 3131 3129
3142 3148 3155 3159 3162 3161 3161 3161 3160 3160 3160 3159 3159 3158 3157 3157 3155 3154 3153 3152 3151 3150 3149 3148 3147 3146 3145 3144 3144 3143 3142 3141 3139 3138 3138 3136 3135 3134 3132 3130 3128 3127
3140 3152 3157 3157 3158 3158 3158 3158 3158 3158 3157 3157 3156 3155 3155 3154 3152 3151 3150 3149 3149 3148 3147 3146 3145 3144 3143 3142 3141 3140 3139 3138 3137 3136 3135 3134 3133 3131 3129 3127 3125 3124
3143 3153 3153 3152 3154 3155 3156 3156 3156 3155 3155 3155 3154 3153 3152 3151 3150 3149 3147 3147 3146 3145 3144 3143 3142 3141 3140 3140 3139 3137 3136 3135 3134 3133 3132 3131 3130 3128 3126 3124 3122 3120
3144 3146 3145 3148 3152 3152 3153 3154 3153 3153 3153 3153 3152 3151 3150 3149 3147 3146 3145 3144 3143 3142 3141 3140 3140 3139 3138 3137 3136 3135 3134 3133 3132 3131 3129 3128 3126 3124 3123 3121 3119 3117
3135 3134 3139 3147 3149 3148 3150 3152 3151 3151 3151 3151 3150 3149 3148 3147 3145 3143 3142 3141 3140 3139 3138 3138 3138 3137 3136 3135 3134 3132 3131 3131 3130 3128 3126 3124 3123 3121 3119 3117 3115 3113
3127 3132 3139 3143 3144 3144 3146 3148 3148 3149 3148 3148 3147 3146 3146 3145 3143 3141 3140 3138 3137 3136 3136 3136 3136 3135 3134 3133 3132 3130 3129 3128 3127 3125 3123 3121 3119 3117 3115 3113 3111 3110
3126 3135 3138 3137 3139 3140 3142 3143 3144 3144 3144 3144 3144 3143 3143 3142 3140 3139 3137 3136 3135 3134 3134 3134 3134 3133 3132 3130 3129 3127 3126 3124 3122 3121 3119 3118 3116 3114 3112 3110 3108 3106
3126 3132 3132 3133 3134 3135 3136 3138 3139 3140 3140 3141 3141 3141 3140 3139 3138 3136 3135 3133 3132 3132 3132 3132 3132 3131 3129 3127 3126 3124 3121 3119 3118 3117 3115 3114 3113 3111 3109 3107 3105 3102
3123 3125 3127 3129 3130 3130 3132 3134 3134 3135 3136 3137 3137 3138 3137 3137 3135 3134 3132 3131 3130 3129 3129 3129 3129 3127 3125 3124 3122 3120 3118 3117 3115 3114 3113 3111 3110 3108 3106 3104 3101 3099
3120 3121 3123 3125 3125 3126 3128 3129 3130 3131 3132 3133 3134 3134 3134 3133 3132 3131 3129 3128 3127 3126 3126 3125 3124 3123 3122 3120 3119 3117 3116 3114 3113 3111 3110 3109 3107 3105 3103 3100 3098 3095
3118 3117 3117 3119 3120 3121 3123 3125 3126 3127 3128 3129 3130 3130 3130 3130 3128 3127 3126 3125 3124 3123 3122 3121 3121 3120 3119 3117 3116 3114 3113 3111 3110 3108 3107 3105 3104 3102 3099 3097 3094 3092
3113 3110 3109 3113 3115 3116 3118 3121 3123 3124 3125 3125 3126 3127 3127 3126 3125 3124 3123 3122 3121 3120 3119 3118 3117 3116 3115 3114 3113 3112 3110 3108 3106 3105 3103 3102 3100 3098 3096 3093 3091 3088
3106 3103 3105 3109 3111 3112 3115 3117 3119 3120 3121 3122 3123 3124 3124 3123 3122 3120 3119 3119 3118 3117 3116 3114 3113 3113 3112 3111 3110 3108 3106 3104 3103 3101 3100 3098 3096 3094 3092 3090 3087 3085
3101 3100 3103 3106 3107 3109 3112 3114 3115 3117 3118 3119 3121 3121 3120 3120 3118 3117 3116 3115 3114 3113 3112 3111 3110 3110 3109 3108 3107 3105 3103 3101 3099 3097 3096 3094 3092 3090 3088 3086 3083 3081